Regional Weather Roundup
Issued by NWS

Home | Current Version | Previous Version | Text Only | Print | Product List | Glossary Off
Versions: 1 2 3 4 5 6 7 8 9 10 11 12 13 14 15 16 17 18 19 20 21 22 23 24 25 26 27 28 29 30 31 32 33 34 35 36 37 38 39 40 41 42 43 44 45 46 47 48 49 50

000
ASUS45 KCYS 231810
RWRWY

WYOMING REGIONAL WEATHER ROUNDUP
NATIONAL WEATHER SERVICE CHEYENNE WY
1200 PM MDT MON MAY 23 2016

NOTE:  "FAIR" INDICATES FEW OR NO CLOUDS BELOW 12,000 FEET
WITH NO SIGNIFICANT WEATHER AND/OR OBSTRUCTIONS TO VISIBILITY.

WYZ001-231900-
YELLOWSTONE NATIONAL PARK

CITY           SKY/WX    TMP DP  RH WIND       PRES   REMARKS
LK YELLOWSTONE   N/A     35  26  69 MISG      29.95S
6HR MIN TEMP:  31; 6HR MAX TEMP:  37; 6HR PCP:  0.02;

W YELLOWSTONE  NOT AVBL

$$
WYZ002>013-054>058-071-098>099-231900-
NORTHERN WYOMING

CITY           SKY/WX    TMP DP  RH WIND       PRES   REMARKS
JACKSON        PTSUNNY   48  25  40 SW8       29.93S
CODY           FAIR      55  25  30 W13G21    29.83R
GREYBULL       FAIR      64  19  17 W7G22     29.79R
6HR MIN TEMP:  41; 6HR MAX TEMP:  65;

WORLAND        FAIR      63  21  20 VRB6      29.80S
6HR MIN TEMP:  32; 6HR MAX TEMP:  64;

SHERIDAN       CLOUDY    65  28  24 N9        29.75S
6HR MIN TEMP:  39; 6HR MAX TEMP:  67;

BUFFALO        FAIR      61  27  27 NE7       29.78S
6HR MIN TEMP:  40; 6HR MAX TEMP:  62;

GILLETTE       FAIR      64  27  24 SW25G33   29.76F
6HR MIN TEMP:  41; 6HR MAX TEMP:  65;

HULETT         FAIR      64  28  25 SW22G30   29.77F
NEWCASTLE      FAIR      64  19  17 SW14G22   29.82F

$$
WYZ014>020-022>026-101>103-231900-
CENTRAL WYOMING

CITY           SKY/WX    TMP DP  RH WIND       PRES   REMARKS
BIG PINEY      PTSUNNY   52  22  30 W14G21    29.96S
6HR MIN TEMP:  25; 6HR MAX TEMP:  53;

PINEDALE       FAIR      46  23  39 SW5       29.97S
DUBOIS         MOCLDY    48  18  29 W22G31    29.89R
LANDER         FAIR      60  18  19 W16       29.84S
6HR MIN TEMP:  34; 6HR MAX TEMP:  61;

RIVERTON       FAIR      59  21  23 VRB6      29.86S
6HR MIN TEMP:  36; 6HR MAX TEMP:  59;

CASPER         FAIR      61  23  23 SW17G35   29.86F
6HR MIN TEMP:  39; 6HR MAX TEMP:  62;

DOUGLAS        FAIR      63  28  26 W20       29.85S
6HR MIN TEMP:  36; 6HR MAX TEMP:  64;


$$
WYZ021-027>030-104>119-231900-
SOUTHERN WYOMING

CITY           SKY/WX    TMP DP  RH WIND       PRES   REMARKS
EVANSTON       FAIR      51  29  42 W10       29.98S
6HR MIN TEMP:  32; 6HR MAX TEMP:  52;

KEMMERER         N/A     50  28  43 W10G21    29.99R
FORT BRIDGER   CLEAR     54  28  37 W8G17     30.00F
ROCK SPRINGS   FAIR      51  25  36 SW12G17   29.98S
6HR MIN TEMP:  32; 6HR MAX TEMP:  52;

DIXON          FAIR      55  27  33 W7        30.00S
RAWLINS        FAIR      54  24  31 SW13      29.97F
6HR MIN TEMP:  32; 6HR MAX TEMP:  54;

SARATOGA       CLOUDY    55  23  28 W5        29.98S
LARAMIE        PTSUNNY   58  20  22 W15G33    29.94F
6HR MIN TEMP:  33; 6HR MAX TEMP:  58;

CHEYENNE       FAIR      63  35  35 S12       29.91F
6HR MIN TEMP:  41; 6HR MAX TEMP:  63;

TORRINGTON     FAIR      66  30  26 NW16G28   29.83F
6HR MIN TEMP:  45; 6HR MAX TEMP:  66;

PINE BLUFFS    MOCLDY    63  36  36 S9G18     29.90F

$$



USA.gov is the U.S. government's official web portal to all federal, state and local government web resources and services.